Tracking 23752 objects as of 23-Oct-2021
HD Live streaming from Space Station
objects crossing your sky now

FENGYUN 1C DEB

Track FENGYUN 1C DEB now!
10-day predictions


NORAD ID: 32350
Int'l Code: 1999-025CYT
Perigee: 547.3 km
Apogee: 1,002.7 km
Inclination: 98.4 °
Period: 100.2 minutes
Semi major axis: 7145 km
RCS: 0.0139 m2 (small)
Launch date: May 10, 1999
Source: People's Republic of China (PRC)
Launch site: Taiyaun Space Center, China (TSC)

Note: This is SATELLITE DEBRIS
aabbcc
Your satellite tracking list
Your tracking list is empty




NASA's NSSDC Master Catalog

Two Line Element Set (TLE):
1 32350U 99025CYT 21293.39413631  .00000869  00000-0  17355-3 0  9992
2 32350  98.4368 348.1284 0318646 205.3116 153.2166 14.37174651756875
Source of the keplerian elements: AFSPC